PORTS® Data Listing: 8735180 Dauphin Island, AL

CO-OPS RAW PORTS DATA

************************      PRELIMINARY DATA      ************************** 

     THIS RAW DATA HAS NOT BEEN SUBJECT TO THE NATIONAL OCEAN SERVICE'S        
     QUALITY CONTROL OR QUALITY ASSURANCE PROCEDURES AND DOES NOT MEET         
     THE CRITERIA AND STANDARDS OF OFFICIAL NATIONAL OCEAN SERVICE             
     DATA.  IT IS RELEASED FOR LIMITED PUBLIC USE AS PRELIMINARY DATA TO       
     BE USED ONLY WITH APPROPRIATE CAUTION.                                    

************************      PRELIMINARY DATA      ************************** 


       CD   -   Calendar date
       T    -   Time
       TZ   -   Timezone
       PW   -   Predicted water level (feet above MLLW)
       OW   -   Observed water level (feet above MLLW)
       WS   -   Wind speed (knots)
       WD   -   Wind direction (degrees true)
       WG   -   Wind gust (knots)
       AT   -   Air temperature (degrees farenheit)
       WT   -   Water temperature (degrees farenheit)
       AP   -   Air pressure (millibars)
       SA   -   Salinty (PSU - Practical Salinity Units)
       SG   -   Specific gravity
       RH   -   Relative humidity
       AG   -   Air gap (feet)
       VI   -   Visibility (nautical miles)

       ** NOTE **
       A variable that has its data fields filled with "9"s, indicates that
       data was not collected for that sample period.
       **********


STATION NAME: Dauphin Island (8735180)
****************************************************************************************************
    CD       T    TZ    PW     OW    WS   WD   WG    AT    WT    AP    SA    SG     RH    AG   VI
****************************************************************************************************
2019/12/05 11:30 CST    0.27   0.34    4   17    5  56.3  57.9 1021.6 -9.9 -9.999 -99.9 -99.99 -9.99
2019/12/05 11:36 CST    0.26   0.36    4   22    4  56.5  58.1 1021.4 -9.9 -9.999 -99.9 -99.99 -9.99
2019/12/05 11:42 CST    0.26   0.40    5   25    5  56.3  58.1 1021.1 -9.9 -9.999 -99.9 -99.99 -9.99
2019/12/05 11:48 CST    0.26   0.42    4   39    5  56.8  58.1 1021.0 -9.9 -9.999 -99.9 -99.99 -9.99
2019/12/05 11:54 CST    0.26   0.39    4   36    4  56.7  58.1 1020.9 -9.9 -9.999 -99.9 -99.99 -9.99
2019/12/05 12:00 CST    0.25   0.38    4   36    4  57.0  58.3 1020.9 -9.9 -9.999 -99.9 -99.99 -9.99
2019/12/05 12:06 CST    0.25   0.39    3   36    4  57.0  58.3 1020.8 -9.9 -9.999 -99.9 -99.99 -9.99
2019/12/05 12:12 CST    0.25   0.39    4   38    5  57.0  58.5 1020.6 -9.9 -9.999 -99.9 -99.99 -9.99
2019/12/05 12:18 CST    0.25   0.37    4   43    5  57.4  58.5 1020.5 -9.9 -9.999 -99.9 -99.99 -9.99
2019/12/05 12:24 CST    0.25   0.36    5   43    5  57.2  58.5 1020.3 -9.9 -9.999 -99.9 -99.99 -9.99
2019/12/05 12:30 CST    0.25   0.39    4   36    5  57.2  58.6 1020.3 -9.9 -9.999 -99.9 -99.99 -9.99
2019/12/05 12:36 CST    0.25   0.40    4   31    4  57.4  58.6 1020.4 -9.9 -9.999 -99.9 -99.99 -9.99
2019/12/05 12:42 CST    0.25   0.44    4   27    4  57.4  58.6 1020.2 -9.9 -9.999 -99.9 -99.99 -9.99
2019/12/05 12:48 CST    0.25   0.46    4   26    4  57.6  58.8 1020.0 -9.9 -9.999 -99.9 -99.99 -9.99
2019/12/05 12:54 CST    0.25   0.44    4   18    4  57.7  58.8 1020.0 -9.9 -9.999 -99.9 -99.99 -9.99
2019/12/05 13:00 CST    0.25   0.46    3   15    4  58.1  58.8 1020.0 -9.9 -9.999 -99.9 -99.99 -9.99
2019/12/05 13:06 CST    0.26   0.41    3  357    4  58.1  59.0 1020.0 -9.9 -9.999 -99.9 -99.99 -9.99
2019/12/05 13:12 CST    0.26   0.50    3    3    3  58.3  59.0 1020.0 -9.9 -9.999 -99.9 -99.99 -9.99
2019/12/05 13:18 CST    0.26   0.47    3  359    3  58.5  59.0 1020.1 -9.9 -9.999 -99.9 -99.99 -9.99
2019/12/05 13:24 CST    0.26   0.43    3  329    3  58.5  59.2 1020.1 -9.9 -9.999 -99.9 -99.99 -9.99
2019/12/05 13:30 CST    0.26   0.48    3  355    3  58.5  59.2 1019.9 -9.9 -9.999 -99.9 -99.99 -9.99
2019/12/05 13:36 CST    0.27   0.53    3    2    4  58.5  59.2 1019.9 -9.9 -9.999 -99.9 -99.99 -9.99
2019/12/05 13:42 CST    0.27   0.49    3  355    4  58.8  59.2 1019.8 -9.9 -9.999 -99.9 -99.99 -9.99
2019/12/05 13:48 CST    0.27   0.53    3    6    3  59.0  59.2 1019.8 -9.9 -9.999 -99.9 -99.99 -9.99
2019/12/05 13:54 CST    0.28   0.52    2  351    3  58.8  59.2 1019.7 -9.9 -9.999 -99.9 -99.99 -9.99
2019/12/05 14:00 CST    0.28   0.54    2   11    2  59.2  59.2 1019.7 -9.9 -9.999 -99.9 -99.99 -9.99
2019/12/05 14:06 CST    0.29   0.55    2  348    2  59.4  59.2 1019.8 -9.9 -9.999 -99.9 -99.99 -9.99
2019/12/05 14:12 CST    0.29   0.57    2  331    3  59.5  59.2 1019.9 -9.9 -9.999 -99.9 -99.99 -9.99
2019/12/05 14:18 CST    0.29   0.60    2  340    3  59.7  59.2 1019.8 -9.9 -9.999 -99.9 -99.99 -9.99
2019/12/05 14:24 CST    0.30   0.53    2  350    2  59.4  59.2 1019.8 -9.9 -9.999 -99.9 -99.99 -9.99
2019/12/05 14:30 CST    0.30   0.55    2  344    2  59.9  59.2 1019.9 -9.9 -9.999 -99.9 -99.99 -9.99
2019/12/05 14:36 CST    0.31   0.59    1  332    2  60.4  59.2 1020.0 -9.9 -9.999 -99.9 -99.99 -9.99
2019/12/05 14:42 CST    0.32   0.60    2    2    2  60.3  59.2 1019.9 -9.9 -9.999 -99.9 -99.99 -9.99
2019/12/05 14:48 CST    0.32   0.58    1  349    2  60.3  59.2 1020.0 -9.9 -9.999 -99.9 -99.99 -9.99
2019/12/05 14:54 CST    0.33   0.60    1  350    2  60.3  59.2 1020.0 -9.9 -9.999 -99.9 -99.99 -9.99
2019/12/05 15:00 CST    0.33   0.59    0   17    1  61.0  59.4 1019.9 -9.9 -9.999 -99.9 -99.99 -9.99
2019/12/05 15:06 CST    0.34   0.57    1    1    1  60.3  59.4 1019.9 -9.9 -9.999 -99.9 -99.99 -9.99
2019/12/05 15:12 CST    0.35   0.59    1   40    1  60.3  59.4 1019.8 -9.9 -9.999 -99.9 -99.99 -9.99
2019/12/05 15:18 CST    0.35   0.59    1   57    1  60.3  59.4 1019.7 -9.9 -9.999 -99.9 -99.99 -9.99
2019/12/05 15:24 CST    0.36   0.57    1   47    1  60.4  59.4 1019.7 -9.9 -9.999 -99.9 -99.99 -9.99
2019/12/05 15:30 CST    0.37   0.59    1   47    2  60.4  59.4 1019.7 -9.9 -9.999 -99.9 -99.99 -9.99
2019/12/05 15:36 CST    0.37   0.59    2   47    2  60.3  59.4 1019.7 -9.9 -9.999 -99.9 -99.99 -9.99
2019/12/05 15:42 CST    0.38   0.63    1   47    1  60.8  59.4 1019.8 -9.9 -9.999 -99.9 -99.99 -9.99
2019/12/05 15:48 CST    0.39   0.57    1   47    1  60.8  59.4 1019.8 -9.9 -9.999 -99.9 -99.99 -9.99
2019/12/05 15:54 CST    0.40   0.61    0   47    1  61.5  59.4 1020.0 -9.9 -9.999 -99.9 -99.99 -9.99
2019/12/05 16:00 CST    0.40   0.60    0   47    0  61.7  59.4 1019.9 -9.9 -9.999 -99.9 -99.99 -9.99
2019/12/05 16:06 CST    0.41   0.59    0   47    0  61.2  59.4 1019.9 -9.9 -9.999 -99.9 -99.99 -9.99
2019/12/05 16:12 CST    0.42   0.62    1   47    1  60.8  59.4 1019.9 -9.9 -9.999 -99.9 -99.99 -9.99
2019/12/05 16:18 CST    0.43   0.65    1   47    1  60.6  59.4 1020.0 -9.9 -9.999 -99.9 -99.99 -9.99
2019/12/05 16:24 CST    0.43   0.62    1   47    1  60.3  59.4 1020.0 -9.9 -9.999 -99.9 -99.99 -9.99
2019/12/05 16:30 CST    0.44   0.65    1   47    1  59.7  59.4 1020.0 -9.9 -9.999 -99.9 -99.99 -9.99
2019/12/05 16:36 CST    0.45   0.66    0   46    1  59.4  59.4 1019.9 -9.9 -9.999 -99.9 -99.99 -9.99
2019/12/05 16:42 CST    0.46   0.64    1   31    1  59.2  59.4 1019.9 -9.9 -9.999 -99.9 -99.99 -9.99
2019/12/05 16:48 CST    0.47   0.63    1   34    2  59.0  59.4 1019.8 -9.9 -9.999 -99.9 -99.99 -9.99
2019/12/05 16:54 CST    0.47   0.71    0   47    1  58.8  59.4 1019.8 -9.9 -9.999 -99.9 -99.99 -9.99
2019/12/05 17:00 CST    0.48   0.67    2   56    2  58.8  59.4 1019.7 -9.9 -9.999 -99.9 -99.99 -9.99
2019/12/05 17:06 CST    0.49   0.72    2   58    2  59.0  59.5 1019.7 -9.9 -9.999 -99.9 -99.99 -9.99
2019/12/05 17:12 CST    0.50   0.74    1   50    2  59.0  59.5 1019.7 -9.9 -9.999 -99.9 -99.99 -9.99
2019/12/05 17:18 CST    0.51   0.80    2   51    2  59.0  59.5 1019.7 -9.9 -9.999 -99.9 -99.99 -9.99
2019/12/05 17:24 CST    0.51   0.76    2   61    2  59.4  59.5 1019.7 -9.9 -9.999 -99.9 -99.99 -9.99
2019/12/05 17:30 CST    0.52   0.80    1   57    2  59.2  59.5 1019.8 -9.9 -9.999 -99.9 -99.99 -9.99
2019/12/05 17:36 CST    0.53   0.79    1   41    2  59.0  59.5 1019.8 -9.9 -9.999 -99.9 -99.99 -9.99
2019/12/05 17:42 CST    0.54   0.80    1   68    2  59.0  59.7 1019.8 -9.9 -9.999 -99.9 -99.99 -9.99
2019/12/05 17:48 CST    0.54   0.88    1   74    3  59.2  59.7 1019.8 -9.9 -9.999 -99.9 -99.99 -9.99
2019/12/05 17:54 CST    0.55   0.81    4   70    4  59.4  59.7 1019.9 -9.9 -9.999 -99.9 -99.99 -9.99
2019/12/05 18:00 CST    0.56   0.85    4   58    5  59.7  59.7 1020.1 -9.9 -9.999 -99.9 -99.99 -9.99
2019/12/05 18:06 CST    0.57   0.89    2   52    3  59.7  59.7 1020.2 -9.9 -9.999 -99.9 -99.99 -9.99
2019/12/05 18:12 CST    0.57   0.91    2   64    3  59.4  59.9 1020.3 -9.9 -9.999 -99.9 -99.99 -9.99
2019/12/05 18:18 CST    0.58   0.92    2   74    4  59.7  59.9 1020.4 -9.9 -9.999 -99.9 -99.99 -9.99
2019/12/05 18:24 CST    0.59   0.93    4   81    4  59.9  59.9 1020.3 -9.9 -9.999 -99.9 -99.99 -9.99
2019/12/05 18:30 CST    0.59   0.91    4   84    5  59.9  59.7 1020.3 -9.9 -9.999 -99.9 -99.99 -9.99
2019/12/05 18:36 CST    0.60   0.96    5   84    5  59.9  59.9 1020.3 -9.9 -9.999 -99.9 -99.99 -9.99
2019/12/05 18:42 CST    0.61   0.93    5   79    5  59.9  59.9 1020.4 -9.9 -9.999 -99.9 -99.99 -9.99
2019/12/05 18:48 CST    0.61   0.96    5   80    6  59.7  59.9 1020.4 -9.9 -9.999 -99.9 -99.99 -9.99
2019/12/05 18:54 CST    0.62   0.97    5   80    5  59.7  59.9 1020.4 -9.9 -9.999 -99.9 -99.99 -9.99
2019/12/05 19:00 CST    0.62   1.07    4   81    5  59.5  59.9 1020.5 -9.9 -9.999 -99.9 -99.99 -9.99
2019/12/05 19:06 CST    0.63   0.91    5   86    5  59.7  59.9 1020.4 -9.9 -9.999 -99.9 -99.99 -9.99
2019/12/05 19:12 CST    0.63   1.02    5   88    5  59.5  59.9 1020.4 -9.9 -9.999 -99.9 -99.99 -9.99
2019/12/05 19:18 CST    0.64   1.00    5   88    5  59.5  59.9 1020.4 -9.9 -9.999 -99.9 -99.99 -9.99
2019/12/05 19:24 CST    0.64   1.03    6   85    6  59.7  59.9 1020.4 -9.9 -9.999 -99.9 -99.99 -9.99
2019/12/05 19:30 CST    0.65   0.99    6   83    6  59.5  59.9 1020.3 -9.9 -9.999 -99.9 -99.99 -9.99
2019/12/05 19:36 CST    0.65   1.04    6   82    7  59.5  60.1 1020.3 -9.9 -9.999 -99.9 -99.99 -9.99
2019/12/05 19:42 CST    0.66   1.03    6   73    7  59.4  59.9 1020.5 -9.9 -9.999 -99.9 -99.99 -9.99
2019/12/05 19:48 CST    0.66   1.06    6   72    7  59.5  60.1 1020.6 -9.9 -9.999 -99.9 -99.99 -9.99
2019/12/05 19:54 CST    0.66   1.05    6   73    6  59.4  60.1 1020.5 -9.9 -9.999 -99.9 -99.99 -9.99
2019/12/05 20:00 CST    0.67   1.06    5   77    7  59.4  60.1 1020.4 -9.9 -9.999 -99.9 -99.99 -9.99
2019/12/05 20:06 CST    0.67   1.09    6   78    7  59.4  60.1 1020.4 -9.9 -9.999 -99.9 -99.99 -9.99
2019/12/05 20:12 CST    0.67   1.10    5   74    7  59.4  60.1 1020.5 -9.9 -9.999 -99.9 -99.99 -9.99
2019/12/05 20:18 CST    0.68   1.08    5   74    6  59.5  60.3 1020.6 -9.9 -9.999 -99.9 -99.99 -9.99
2019/12/05 20:24 CST    0.68   1.09    4   77    6  59.4  60.1 1020.5 -9.9 -9.999 -99.9 -99.99 -9.99
2019/12/05 20:30 CST    0.68   1.10    5   72    6  59.4  60.3 1020.5 -9.9 -9.999 -99.9 -99.99 -9.99
2019/12/05 20:36 CST    0.68   1.09    5   65    7  59.2  60.1 1020.6 -9.9 -9.999 -99.9 -99.99 -9.99
2019/12/05 20:42 CST    0.69   1.14    5   63    6  59.0  60.3 1020.6 -9.9 -9.999 -99.9 -99.99 -9.99
2019/12/05 20:48 CST    0.69   1.18    7   60    7  59.0  60.3 1020.6 -9.9 -9.999 -99.9 -99.99 -9.99
2019/12/05 20:54 CST    0.69   1.11    7   58    8  58.8  60.3 1020.5 -9.9 -9.999 -99.9 -99.99 -9.99
2019/12/05 21:00 CST    0.69   1.14    8   59    8  59.0  60.3 1020.5 -9.9 -9.999 -99.9 -99.99 -9.99
2019/12/05 21:06 CST    0.69   1.12    7   62    8  58.8  60.3 1020.5 -9.9 -9.999 -99.9 -99.99 -9.99
2019/12/05 21:12 CST    0.69   1.07    7   67    7  59.0  60.1 1020.4 -9.9 -9.999 -99.9 -99.99 -9.99
2019/12/05 21:18 CST    0.69   1.03    6   78    7  58.8  60.1 1020.3 -9.9 -9.999 -99.9 -99.99 -9.99
2019/12/05 21:24 CST    0.69   1.06    7   80    8  59.0  60.1 1020.3 -9.9 -9.999 -99.9 -99.99 -9.99
2019/12/05 21:30 CST    0.69   0.99    7   86    7  58.8  60.1 1020.3 -9.9 -9.999 -99.9 -99.99 -9.99
2019/12/05 21:36 CST    0.69   1.01    7   73    7  58.8  60.1 1020.4 -9.9 -9.999 -99.9 -99.99 -9.99
2019/12/05 21:42 CST    0.69   1.07    7   71    8  58.8  60.1 1020.4 -9.9 -9.999 -99.9 -99.99 -9.99
2019/12/05 21:48 CST    0.69   1.15    5   68    7  59.2  60.3 1020.5 -9.9 -9.999 -99.9 -99.99 -9.99
2019/12/05 21:54 CST    0.69   1.00    5   63    6  59.0  60.1 1020.5 -9.9 -9.999 -99.9 -99.99 -9.99
2019/12/05 22:00 CST    0.69   1.13    7   61    7  59.0  60.1 1020.5 -9.9 -9.999 -99.9 -99.99 -9.99
2019/12/05 22:06 CST    0.69   1.08    5   59    7  58.8  60.1 1020.5 -9.9 -9.999 -99.9 -99.99 -9.99
2019/12/05 22:12 CST    0.69   1.10    4   53    5  59.0  60.1 1020.6 -9.9 -9.999 -99.9 -99.99 -9.99
2019/12/05 22:18 CST    0.69   1.07    5   54    6  58.8  59.9 1020.6 -9.9 -9.999 -99.9 -99.99 -9.99
2019/12/05 22:24 CST    0.68   1.08    6   59    6  58.8  59.9 1020.6 -9.9 -9.999 -99.9 -99.99 -9.99
2019/12/05 22:30 CST    0.68   1.06    6   72    7  59.0  59.9 1020.5 -9.9 -9.999 -99.9 -99.99 -9.99
2019/12/05 22:36 CST    0.68   1.17    5   82    6  59.2  59.9 1020.5 -9.9 -9.999 -99.9 -99.99 -9.99
2019/12/05 22:42 CST    0.68   1.07    4   76    5  59.0  59.9 1020.6 -9.9 -9.999 -99.9 -99.99 -9.99
2019/12/05 22:48 CST    0.68   0.98    5   78    5  59.2  59.9 1020.5 -9.9 -9.999 -99.9 -99.99 -9.99
2019/12/05 22:54 CST    0.67   1.06    5   78    5  59.2  59.9 1020.5 -9.9 -9.999 -99.9 -99.99 -9.99
2019/12/05 23:00 CST    0.67   1.08    5   81    5  59.2  59.7 1020.5 -9.9 -9.999 -99.9 -99.99 -9.99
2019/12/05 23:06 CST    0.67   1.09    6   85    6  59.5  59.7 1020.4 -9.9 -9.999 -99.9 -99.99 -9.99
2019/12/05 23:12 CST    0.67   0.97    5   90    6  59.7  59.7 1020.4 -9.9 -9.999 -99.9 -99.99 -9.99
2019/12/05 23:18 CST    0.66   1.05    5   99    5  59.9  59.7 1020.3 -9.9 -9.999 -99.9 -99.99 -9.99
2019/12/05 23:24 CST    0.66   1.06    5   90    5  59.4  59.5 1020.2 -9.9 -9.999 -99.9 -99.99 -9.99
2019/12/05 23:30 CST    0.66   1.06    6   99    7  60.3  59.5 1020.1 -9.9 -9.999 -99.9 -99.99 -9.99
2019/12/05 23:36 CST    0.65   0.97    6  106    6  60.4  59.5 1020.1 -9.9 -9.999 -99.9 -99.99 -9.99
2019/12/05 23:42 CST    0.65   1.01    5  109    6  60.1  59.5 1020.1 -9.9 -9.999 -99.9 -99.99 -9.99
2019/12/05 23:48 CST    0.65   1.00    5  125    6  60.8  59.5 1020.0 -9.9 -9.999 -99.9 -99.99 -9.99
2019/12/05 23:54 CST    0.64   0.98    6  128    7  61.5  59.4 1020.0 -9.9 -9.999 -99.9 -99.99 -9.99
2019/12/06 00:00 CST    0.64   0.95    5  124    7  61.3  59.4 1020.0 -9.9 -9.999 -99.9 -99.99 -9.99
2019/12/06 00:06 CST    0.64   0.98    5  124    6  61.7  59.4 1019.9 -9.9 -9.999 -99.9 -99.99 -9.99
2019/12/06 00:12 CST    0.63   0.97    5  124    6  62.1  59.4 1019.9 -9.9 -9.999 -99.9 -99.99 -9.99
2019/12/06 00:18 CST    0.63   0.99    6  127    6  62.1  59.4 1019.9 -9.9 -9.999 -99.9 -99.99 -9.99
2019/12/06 00:24 CST    0.63   1.07    8  126    8  62.6  58.8 1019.7 -9.9 -9.999 -99.9 -99.99 -9.99
2019/12/06 00:30 CST    0.62   0.96    7  129    8  62.6  59.2 1019.9 -9.9 -9.999 -99.9 -99.99 -9.99
2019/12/06 00:36 CST    0.62   0.98    7  127    7  62.8  59.0 1019.9 -9.9 -9.999 -99.9 -99.99 -9.99
2019/12/06 00:42 CST    0.62   1.02    7  129    7  62.8  58.8 1019.8 -9.9 -9.999 -99.9 -99.99 -9.99
2019/12/06 00:48 CST    0.61   0.95    6  128    7  62.6  59.0 1019.8 -9.9 -9.999 -99.9 -99.99 -9.99
2019/12/06 00:54 CST    0.61   0.97    5  127    6  62.6  58.8 1019.9 -9.9 -9.999 -99.9 -99.99 -9.99
2019/12/06 01:00 CST    0.61   0.95    4  119    5  61.9  58.8 1019.8 -9.9 -9.999 -99.9 -99.99 -9.99
2019/12/06 01:06 CST    0.60   0.96    4  125    4  61.5  58.8 1020.0 -9.9 -9.999 -99.9 -99.99 -9.99
2019/12/06 01:12 CST    0.60   0.97    3  131    4  61.7  58.6 1020.0 -9.9 -9.999 -99.9 -99.99 -9.99
2019/12/06 01:18 CST    0.59   0.93    3  138    4  61.5  58.8 1020.0 -9.9 -9.999 -99.9 -99.99 -9.99
2019/12/06 01:24 CST    0.59   0.93    3  132    3  61.2  58.6 1019.9 -9.9 -9.999 -99.9 -99.99 -9.99
2019/12/06 01:30 CST    0.59   0.95    2  132    3  60.8  58.6 1019.9 -9.9 -9.999 -99.9 -99.99 -9.99
2019/12/06 01:36 CST    0.58   0.91    2  123    2  60.4  58.6 1019.8 -9.9 -9.999 -99.9 -99.99 -9.99
2019/12/06 01:42 CST    0.58   0.90    3  135    4  60.8  58.6 1019.8 -9.9 -9.999 -99.9 -99.99 -9.99
2019/12/06 01:48 CST    0.58   0.94    4  136    5  61.3  58.6 1019.7 -9.9 -9.999 -99.9 -99.99 -9.99
2019/12/06 01:54 CST    0.57   0.95    4  129    5  61.0  58.5 1019.5 -9.9 -9.999 -99.9 -99.99 -9.99
2019/12/06 02:00 CST    0.57   0.97    6  136    7  61.9  58.5 1019.3 -9.9 -9.999 -99.9 -99.99 -9.99
2019/12/06 02:06 CST    0.56   0.95    6  133    6  62.2  58.5 1019.2 -9.9 -9.999 -99.9 -99.99 -9.99
2019/12/06 02:12 CST    0.56   0.95    7  133    7  62.8  58.5 1019.1 -9.9 -9.999 -99.9 -99.99 -9.99
2019/12/06 02:18 CST    0.56   0.91    8  131    8  63.0  58.5 1019.1 -9.9 -9.999 -99.9 -99.99 -9.99
2019/12/06 02:24 CST    0.55   0.92    7  133    8  62.6  58.5 1019.2 -9.9 -9.999 -99.9 -99.99 -9.99
2019/12/06 02:30 CST    0.55   0.94    6  134    7  62.4  58.5 1019.1 -9.9 -9.999 -99.9 -99.99 -9.99
2019/12/06 02:36 CST    0.55   0.90    7  131    7  62.6  58.5 1019.2 -9.9 -9.999 -99.9 -99.99 -9.99
2019/12/06 02:42 CST    0.54   0.94    8  132    8  63.1  58.3 1019.1 -9.9 -9.999 -99.9 -99.99 -9.99
2019/12/06 02:48 CST    0.54   0.94    8  128    9  63.1  58.3 1019.0 -9.9 -9.999 -99.9 -99.99 -9.99
2019/12/06 02:54 CST    0.54   0.94    9  131    9  63.0  58.3 1019.0 -9.9 -9.999 -99.9 -99.99 -9.99
2019/12/06 03:00 CST    0.53   0.93    9  133    9  63.1  58.3 1019.0 -9.9 -9.999 -99.9 -99.99 -9.99
2019/12/06 03:06 CST    0.53   0.94    9  132    9  63.1  58.3 1018.9 -9.9 -9.999 -99.9 -99.99 -9.99
2019/12/06 03:12 CST    0.53   0.93    8  133    9  63.1  58.3 1019.1 -9.9 -9.999 -99.9 -99.99 -9.99
2019/12/06 03:18 CST    0.53   0.93    8  134    8  63.3  58.3 1019.1 -9.9 -9.999 -99.9 -99.99 -9.99
2019/12/06 03:24 CST    0.52   0.87    8  135    8  63.3  58.3 1019.1 -9.9 -9.999 -99.9 -99.99 -9.99
2019/12/06 03:30 CST    0.52   0.90    8  135    9  63.1  58.3 1019.1 -9.9 -9.999 -99.9 -99.99 -9.99
2019/12/06 03:36 CST    0.52   0.90    8  135    9  63.1  58.3 1019.0 -9.9 -9.999 -99.9 -99.99 -9.99
2019/12/06 03:42 CST    0.51   0.86    9  138    9  63.1  58.1 1018.9 -9.9 -9.999 -99.9 -99.99 -9.99
2019/12/06 03:48 CST    0.51   0.83    9  139    9  63.1  58.1 1018.9 -9.9 -9.999 -99.9 -99.99 -9.99
2019/12/06 03:54 CST    0.51   0.84    8  141    9  63.1  58.1 1018.9 -9.9 -9.999 -99.9 -99.99 -9.99
2019/12/06 04:00 CST    0.50   0.81    8  139    8  63.1  58.1 1018.9 -9.9 -9.999 -99.9 -99.99 -9.99
2019/12/06 04:06 CST    0.50   0.84    7  139    8  63.0  58.1 1019.0 -9.9 -9.999 -99.9 -99.99 -9.99
2019/12/06 04:12 CST    0.50   0.88    6  136    7  63.0  58.1 1019.0 -9.9 -9.999 -99.9 -99.99 -9.99
2019/12/06 04:18 CST    0.50   0.83    5  135    6  62.6  58.1 1019.2 -9.9 -9.999 -99.9 -99.99 -9.99
2019/12/06 04:24 CST    0.49   0.84    4  132    5  62.8  58.1 1019.3 -9.9 -9.999 -99.9 -99.99 -9.99
2019/12/06 04:30 CST    0.49   0.86    4  133    4  62.8  58.1 1019.4 -9.9 -9.999 -99.9 -99.99 -9.99
2019/12/06 04:36 CST    0.49   0.82    5  129    5  62.8  58.1 1019.3 -9.9 -9.999 -99.9 -99.99 -9.99
2019/12/06 04:42 CST    0.48   0.81    5  134    5  63.1  58.1 1019.4 -9.9 -9.999 -99.9 -99.99 -9.99
2019/12/06 04:48 CST    0.48   0.77    4  131    5  62.8  58.1 1019.4 -9.9 -9.999 -99.9 -99.99 -9.99
2019/12/06 04:54 CST    0.48   0.76    4  129    5  62.6  58.1 1019.4 -9.9 -9.999 -99.9 -99.99 -9.99
2019/12/06 05:00 CST    0.48   0.83    4  129    4  62.6  58.1 1019.4 -9.9 -9.999 -99.9 -99.99 -9.99
2019/12/06 05:06 CST    0.47   0.81    3  136    4  62.4  58.1 1019.6 -9.9 -9.999 -99.9 -99.99 -9.99
2019/12/06 05:12 CST    0.47 -99.99 -999 -999 -999 -99.9 -99.9 -999.9 -9.9 -9.999 -99.9 -99.99 -9.99
2019/12/06 05:18 CST    0.47 -99.99 -999 -999 -999 -99.9 -99.9 -999.9 -9.9 -9.999 -99.9 -99.99 -9.99
2019/12/06 05:24 CST    0.46 -99.99 -999 -999 -999 -99.9 -99.9 -999.9 -9.9 -9.999 -99.9 -99.99 -9.99
2019/12/06 05:30 CST    0.46 -99.99 -999 -999 -999 -99.9 -99.9 -999.9 -9.9 -9.999 -99.9 -99.99 -9.99
2019/12/06 05:36 CST    0.46 -99.99 -999 -999 -999 -99.9 -99.9 -999.9 -9.9 -9.999 -99.9 -99.99 -9.99
2019/12/06 05:42 CST    0.46 -99.99 -999 -999 -999 -99.9 -99.9 -999.9 -9.9 -9.999 -99.9 -99.99 -9.99
2019/12/06 05:48 CST    0.45 -99.99 -999 -999 -999 -99.9 -99.9 -999.9 -9.9 -9.999 -99.9 -99.99 -9.99
2019/12/06 05:54 CST    0.45 -99.99 -999 -999 -999 -99.9 -99.9 -999.9 -9.9 -9.999 -99.9 -99.99 -9.99
2019/12/06 06:00 CST    0.45 -99.99 -999 -999 -999 -99.9 -99.9 -999.9 -9.9 -9.999 -99.9 -99.99 -9.99
2019/12/06 06:06 CST    0.44 -99.99 -999 -999 -999 -99.9 -99.9 -999.9 -9.9 -9.999 -99.9 -99.99 -9.99
2019/12/06 06:12 CST    0.44 -99.99 -999 -999 -999 -99.9 -99.9 -999.9 -9.9 -9.999 -99.9 -99.99 -9.99
2019/12/06 06:18 CST    0.44 -99.99 -999 -999 -999 -99.9 -99.9 -999.9 -9.9 -9.999 -99.9 -99.99 -9.99
2019/12/06 06:24 CST    0.43 -99.99 -999 -999 -999 -99.9 -99.9 -999.9 -9.9 -9.999 -99.9 -99.99 -9.99
2019/12/06 06:30 CST    0.43 -99.99 -999 -999 -999 -99.9 -99.9 -999.9 -9.9 -9.999 -99.9 -99.99 -9.99
2019/12/06 06:36 CST    0.43 -99.99 -999 -999 -999 -99.9 -99.9 -999.9 -9.9 -9.999 -99.9 -99.99 -9.99
2019/12/06 06:42 CST    0.43 -99.99 -999 -999 -999 -99.9 -99.9 -999.9 -9.9 -9.999 -99.9 -99.99 -9.99
2019/12/06 06:48 CST    0.42 -99.99 -999 -999 -999 -99.9 -99.9 -999.9 -9.9 -9.999 -99.9 -99.99 -9.99
2019/12/06 06:54 CST    0.42 -99.99 -999 -999 -999 -99.9 -99.9 -999.9 -9.9 -9.999 -99.9 -99.99 -9.99
2019/12/06 07:00 CST    0.42 -99.99 -999 -999 -999 -99.9 -99.9 -999.9 -9.9 -9.999 -99.9 -99.99 -9.99
2019/12/06 07:06 CST    0.41 -99.99 -999 -999 -999 -99.9 -99.9 -999.9 -9.9 -9.999 -99.9 -99.99 -9.99
2019/12/06 07:12 CST    0.41 -99.99 -999 -999 -999 -99.9 -99.9 -999.9 -9.9 -9.999 -99.9 -99.99 -9.99
2019/12/06 07:18 CST    0.41 -99.99 -999 -999 -999 -99.9 -99.9 -999.9 -9.9 -9.999 -99.9 -99.99 -9.99
2019/12/06 07:24 CST    0.40 -99.99 -999 -999 -999 -99.9 -99.9 -999.9 -9.9 -9.999 -99.9 -99.99 -9.99
2019/12/06 07:30 CST    0.40 -99.99 -999 -999 -999 -99.9 -99.9 -999.9 -9.9 -9.999 -99.9 -99.99 -9.99
2019/12/06 07:36 CST    0.40 -99.99 -999 -999 -999 -99.9 -99.9 -999.9 -9.9 -9.999 -99.9 -99.99 -9.99
2019/12/06 07:42 CST    0.39 -99.99 -999 -999 -999 -99.9 -99.9 -999.9 -9.9 -9.999 -99.9 -99.99 -9.99
2019/12/06 07:48 CST    0.39 -99.99 -999 -999 -999 -99.9 -99.9 -999.9 -9.9 -9.999 -99.9 -99.99 -9.99
2019/12/06 07:54 CST    0.39 -99.99 -999 -999 -999 -99.9 -99.9 -999.9 -9.9 -9.999 -99.9 -99.99 -9.99
2019/12/06 08:00 CST    0.38 -99.99 -999 -999 -999 -99.9 -99.9 -999.9 -9.9 -9.999 -99.9 -99.99 -9.99
2019/12/06 08:06 CST    0.38 -99.99 -999 -999 -999 -99.9 -99.9 -999.9 -9.9 -9.999 -99.9 -99.99 -9.99
2019/12/06 08:12 CST    0.38 -99.99 -999 -999 -999 -99.9 -99.9 -999.9 -9.9 -9.999 -99.9 -99.99 -9.99
2019/12/06 08:18 CST    0.37 -99.99 -999 -999 -999 -99.9 -99.9 -999.9 -9.9 -9.999 -99.9 -99.99 -9.99
2019/12/06 08:24 CST    0.37 -99.99 -999 -999 -999 -99.9 -99.9 -999.9 -9.9 -9.999 -99.9 -99.99 -9.99
2019/12/06 08:30 CST    0.37 -99.99 -999 -999 -999 -99.9 -99.9 -999.9 -9.9 -9.999 -99.9 -99.99 -9.99
2019/12/06 08:36 CST    0.36 -99.99 -999 -999 -999 -99.9 -99.9 -999.9 -9.9 -9.999 -99.9 -99.99 -9.99
2019/12/06 08:42 CST    0.36 -99.99 -999 -999 -999 -99.9 -99.9 -999.9 -9.9 -9.999 -99.9 -99.99 -9.99
2019/12/06 08:48 CST    0.36 -99.99 -999 -999 -999 -99.9 -99.9 -999.9 -9.9 -9.999 -99.9 -99.99 -9.99
2019/12/06 08:54 CST    0.35 -99.99 -999 -999 -999 -99.9 -99.9 -999.9 -9.9 -9.999 -99.9 -99.99 -9.99
2019/12/06 09:00 CST    0.35 -99.99 -999 -999 -999 -99.9 -99.9 -999.9 -9.9 -9.999 -99.9 -99.99 -9.99
2019/12/06 09:06 CST    0.35 -99.99 -999 -999 -999 -99.9 -99.9 -999.9 -9.9 -9.999 -99.9 -99.99 -9.99
2019/12/06 09:12 CST    0.34 -99.99 -999 -999 -999 -99.9 -99.9 -999.9 -9.9 -9.999 -99.9 -99.99 -9.99
2019/12/06 09:18 CST    0.34 -99.99 -999 -999 -999 -99.9 -99.9 -999.9 -9.9 -9.999 -99.9 -99.99 -9.99
2019/12/06 09:24 CST    0.34 -99.99 -999 -999 -999 -99.9 -99.9 -999.9 -9.9 -9.999 -99.9 -99.99 -9.99
2019/12/06 09:30 CST    0.33 -99.99 -999 -999 -999 -99.9 -99.9 -999.9 -9.9 -9.999 -99.9 -99.99 -9.99
2019/12/06 09:36 CST    0.33 -99.99 -999 -999 -999 -99.9 -99.9 -999.9 -9.9 -9.999 -99.9 -99.99 -9.99
2019/12/06 09:42 CST    0.33 -99.99 -999 -999 -999 -99.9 -99.9 -999.9 -9.9 -9.999 -99.9 -99.99 -9.99
2019/12/06 09:48 CST    0.33 -99.99 -999 -999 -999 -99.9 -99.9 -999.9 -9.9 -9.999 -99.9 -99.99 -9.99
2019/12/06 09:54 CST    0.32 -99.99 -999 -999 -999 -99.9 -99.9 -999.9 -9.9 -9.999 -99.9 -99.99 -9.99
2019/12/06 10:00 CST    0.32 -99.99 -999 -999 -999 -99.9 -99.9 -999.9 -9.9 -9.999 -99.9 -99.99 -9.99
2019/12/06 10:06 CST    0.32 -99.99 -999 -999 -999 -99.9 -99.9 -999.9 -9.9 -9.999 -99.9 -99.99 -9.99
2019/12/06 10:12 CST    0.32 -99.99 -999 -999 -999 -99.9 -99.9 -999.9 -9.9 -9.999 -99.9 -99.99 -9.99
2019/12/06 10:18 CST    0.32 -99.99 -999 -999 -999 -99.9 -99.9 -999.9 -9.9 -9.999 -99.9 -99.99 -9.99
2019/12/06 10:24 CST    0.31 -99.99 -999 -999 -999 -99.9 -99.9 -999.9 -9.9 -9.999 -99.9 -99.99 -9.99
2019/12/06 10:30 CST    0.31 -99.99 -999 -999 -999 -99.9 -99.9 -999.9 -9.9 -9.999 -99.9 -99.99 -9.99
2019/12/06 10:36 CST    0.31 -99.99 -999 -999 -999 -99.9 -99.9 -999.9 -9.9 -9.999 -99.9 -99.99 -9.99
2019/12/06 10:42 CST    0.31 -99.99 -999 -999 -999 -99.9 -99.9 -999.9 -9.9 -9.999 -99.9 -99.99 -9.99
2019/12/06 10:48 CST    0.31 -99.99 -999 -999 -999 -99.9 -99.9 -999.9 -9.9 -9.999 -99.9 -99.99 -9.99
2019/12/06 10:54 CST    0.31 -99.99 -999 -999 -999 -99.9 -99.9 -999.9 -9.9 -9.999 -99.9 -99.99 -9.99
2019/12/06 11:00 CST    0.31 -99.99 -999 -999 -999 -99.9 -99.9 -999.9 -9.9 -9.999 -99.9 -99.99 -9.99
2019/12/06 11:06 CST    0.31 -99.99 -999 -999 -999 -99.9 -99.9 -999.9 -9.9 -9.999 -99.9 -99.99 -9.99
2019/12/06 11:12 CST    0.30 -99.99 -999 -999 -999 -99.9 -99.9 -999.9 -9.9 -9.999 -99.9 -99.99 -9.99
2019/12/06 11:18 CST    0.30 -99.99 -999 -999 -999 -99.9 -99.9 -999.9 -9.9 -9.999 -99.9 -99.99 -9.99
2019/12/06 11:24 CST    0.30 -99.99 -999 -999 -999 -99.9 -99.9 -999.9 -9.9 -9.999 -99.9 -99.99 -9.99
2019/12/06 11:30 CST    0.30 -99.99 -999 -999 -999 -99.9 -99.9 -999.9 -9.9 -9.999 -99.9 -99.99 -9.99